DTA872 FNLU-FQMA

Flight info

Callsign DTA872
Flight time 5h 16m
Altitude 35000
Route VNA UA400 VOTAL UQ7 EGPIT UT943 DILBO UT942 DUMPO UP303 ETMIT DCT PKV DCT UVITI UT122 ORNAD ORNAD1B
Aircraft L101/H-SDE3FGHIRW/S

Departure

Time 2026-04-23 19:03
Airport Quatro de Fevereiro International Airport (FNLU)

Arrival

Time 2026-04-24 00:19
Airport Maputo Airport (FQMA)
Time Latitude Longitude Altitude Speed Heading
2026-04-23 18:35 -8.84942 13.23642 264 ft 0 kts 308°
2026-04-23 18:56 -8.84940 13.23640 264 ft 1 kts 308°
2026-04-23 18:56 -8.84930 13.23627 266 ft 3 kts 308°
2026-04-23 18:57 -8.84912 13.23603 264 ft 5 kts 306°
2026-04-23 18:57 -8.84910 13.23570 264 ft 5 kts 250°
2026-04-23 18:57 -8.84927 13.23528 264 ft 7 kts 246°
2026-04-23 18:57 -8.84968 13.23507 264 ft 7 kts 165°
2026-04-23 18:58 -8.84997 13.23519 264 ft 9 kts 158°
2026-04-23 18:59 -8.85004 13.23522 264 ft 9 kts 158°
2026-04-23 18:59 -8.85074 13.23550 265 ft 13 kts 158°
2026-04-23 19:00 -8.85157 13.23597 263 ft 15 kts 138°
2026-04-23 19:00 -8.85240 13.23673 263 ft 17 kts 138°
2026-04-23 19:00 -8.85312 13.23741 263 ft 10 kts 137°
2026-04-23 19:00 -8.85368 13.23794 264 ft 11 kts 137°
2026-04-23 19:01 -8.85416 13.23806 264 ft 7 kts 210°
2026-04-23 19:01 -8.85444 13.23781 263 ft 0 kts 226°
2026-04-23 19:02 -8.85579 13.23637 265 ft 68 kts 226°
2026-04-23 19:02 -8.86103 13.23078 263 ft 148 kts 228°
2026-04-23 19:02 -8.86633 13.22504 331 ft 185 kts 230°
2026-04-23 19:03 -8.87551 13.21511 1151 ft 198 kts 230°
2026-04-23 19:03 -8.88469 13.20490 2178 ft 181 kts 228°
2026-04-23 19:03 -8.89219 13.19653 2578 ft 161 kts 227°
2026-04-23 19:03 -8.90065 13.18697 3031 ft 199 kts 227°
2026-04-23 19:04 -8.91106 13.17645 3698 ft 223 kts 218°
2026-04-23 19:04 -8.92531 13.16903 4421 ft 240 kts 194°
2026-04-23 19:04 -8.94228 13.16738 5107 ft 257 kts 172°
2026-04-23 19:04 -8.96093 13.17249 5228 ft 299 kts 150°
2026-04-23 19:05 -8.97671 13.18436 5468 ft 268 kts 129°
2026-04-23 19:05 -8.98660 13.19956 5348 ft 259 kts 109°
2026-04-23 19:05 -8.99070 13.21748 5647 ft 266 kts 91°
2026-04-23 19:05 -8.98883 13.23619 5993 ft 270 kts 74°
2026-04-23 19:06 -8.98103 13.25370 6332 ft 278 kts 57°
2026-04-23 19:06 -8.96793 13.26834 6646 ft 287 kts 40°
2026-04-23 19:06 -8.95055 13.27868 7021 ft 296 kts 24°
2026-04-23 19:06 -8.93112 13.28556 7437 ft 294 kts 28°
2026-04-23 19:07 -8.91452 13.29747 7779 ft 295 kts 48°
2026-04-23 19:07 -8.90296 13.31462 8139 ft 297 kts 65°
2026-04-23 19:07 -8.89550 13.33404 8676 ft 295 kts 74°
2026-04-23 19:07 -8.89269 13.35456 9104 ft 299 kts 92°
2026-04-23 19:08 -8.89596 13.37539 9545 ft 301 kts 104°
2026-04-23 19:08 -8.90282 13.39533 10085 ft 299 kts 111°
2026-04-23 19:08 -8.91110 13.41461 10512 ft 301 kts 113°
2026-04-23 19:08 -8.92004 13.43418 10687 ft 312 kts 114°
2026-04-23 19:09 -8.92941 13.45443 10810 ft 324 kts 114°
2026-04-23 19:09 -8.93912 13.47538 10944 ft 334 kts 114°
2026-04-23 19:09 -8.94910 13.49696 11073 ft 343 kts 114°
2026-04-23 19:09 -8.95935 13.51914 11195 ft 352 kts 114°
2026-04-23 19:10 -8.96980 13.54177 11337 ft 358 kts 114°
2026-04-23 19:10 -8.98042 13.56479 11454 ft 365 kts 114°
2026-04-23 19:10 -8.99124 13.58825 11571 ft 370 kts 114°
2026-04-23 19:10 -9.00205 13.61169 11698 ft 376 kts 114°
2026-04-23 19:11 -9.01318 13.63585 11854 ft 380 kts 114°
2026-04-23 19:11 -9.02438 13.66014 12085 ft 383 kts 114°
2026-04-23 19:11 -9.03565 13.68458 12357 ft 383 kts 114°
2026-04-23 19:11 -9.04690 13.70899 12660 ft 383 kts 114°
2026-04-23 19:12 -9.05816 13.73344 12909 ft 384 kts 114°
2026-04-23 19:12 -9.06947 13.75800 13147 ft 386 kts 114°
2026-04-23 19:12 -9.08084 13.78270 13434 ft 388 kts 114°
2026-04-23 19:12 -9.09224 13.80747 13695 ft 389 kts 114°
2026-04-23 19:13 -9.10367 13.83233 13887 ft 390 kts 115°
2026-04-23 19:13 -9.11515 13.85731 14089 ft 394 kts 115°
2026-04-23 19:13 -9.12673 13.88252 14306 ft 396 kts 115°
2026-04-23 19:13 -9.13833 13.90783 14569 ft 397 kts 115°
2026-04-23 19:14 -9.14997 13.93321 14828 ft 399 kts 115°
2026-04-23 19:14 -9.16167 13.95874 15124 ft 400 kts 115°
2026-04-23 19:14 -9.17338 13.98430 15400 ft 402 kts 115°
2026-04-23 19:14 -9.18516 14.00999 15651 ft 403 kts 115°
2026-04-23 19:15 -9.19701 14.03587 15866 ft 406 kts 115°
2026-04-23 19:15 -9.20893 14.06190 16075 ft 409 kts 115°
2026-04-23 19:15 -9.22093 14.08815 16333 ft 412 kts 115°
2026-04-23 19:15 -9.23299 14.11452 16636 ft 413 kts 115°
2026-04-23 19:16 -9.24507 14.14094 16923 ft 414 kts 115°
2026-04-23 19:16 -9.25720 14.16750 17174 ft 416 kts 115°
2026-04-23 19:16 -9.26936 14.19412 17427 ft 419 kts 115°
2026-04-23 19:17 -9.29391 14.24790 18006 ft 422 kts 115°
2026-04-23 19:17 -9.30621 14.27487 18282 ft 422 kts 115°
2026-04-23 19:17 -9.31854 14.30191 18526 ft 424 kts 115°
2026-04-23 19:17 -9.33091 14.32907 18794 ft 426 kts 115°
2026-04-23 19:18 -9.34333 14.35633 19056 ft 427 kts 115°
2026-04-23 19:18 -9.35579 14.38370 19303 ft 429 kts 115°
2026-04-23 19:18 -9.36831 14.41124 19522 ft 432 kts 115°
2026-04-23 19:18 -9.38092 14.43897 19787 ft 434 kts 115°
2026-04-23 19:19 -9.40617 14.49456 20350 ft 436 kts 115°
2026-04-23 19:19 -9.41888 14.52258 20597 ft 440 kts 115°
2026-04-23 19:20 -9.44453 14.57915 21133 ft 443 kts 115°
2026-04-23 19:20 -9.45738 14.60754 21431 ft 445 kts 115°
2026-04-23 19:20 -9.47030 14.63610 21695 ft 448 kts 115°
2026-04-23 19:20 -9.48331 14.66488 21972 ft 450 kts 115°
2026-04-23 19:21 -9.49636 14.69378 22270 ft 452 kts 115°
2026-04-23 19:21 -9.52256 14.75188 22830 ft 456 kts 115°
2026-04-23 19:21 -9.53579 14.78126 23047 ft 460 kts 115°
2026-04-23 19:22 -9.54912 14.81089 23255 ft 464 kts 115°
2026-04-23 19:22 -9.56251 14.84069 23480 ft 466 kts 115°
2026-04-23 19:22 -9.58941 14.90072 24001 ft 469 kts 115°
2026-04-23 19:23 -9.60289 14.93087 24311 ft 469 kts 115°
2026-04-23 19:23 -9.61634 14.96101 24631 ft 470 kts 115°
2026-04-23 19:23 -9.62978 14.99120 24961 ft 469 kts 115°
2026-04-23 19:24 -9.65685 15.05157 25243 ft 479 kts 118°
2026-04-23 19:24 -9.67513 15.07987 25331 ft 483 kts 132°
2026-04-23 19:24 -9.72624 15.12465 25565 ft 490 kts 140°
2026-04-23 19:25 -9.77657 15.17219 25807 ft 498 kts 136°
2026-04-23 19:25 -9.82852 15.21933 26081 ft 504 kts 140°
2026-04-23 19:26 -9.88285 15.26461 26582 ft 506 kts 141°
2026-04-23 19:26 -9.90993 15.28731 26904 ft 505 kts 141°
2026-04-23 19:27 -9.96388 15.33275 27672 ft 503 kts 141°
2026-04-23 19:27 -10.04435 15.40011 29040 ft 497 kts 141°
2026-04-23 19:28 -10.09740 15.44451 30023 ft 492 kts 141°
2026-04-23 19:28 -10.14999 15.48854 30849 ft 488 kts 141°
2026-04-23 19:29 -10.17612 15.51042 31226 ft 487 kts 141°
2026-04-23 19:29 -10.22840 15.55423 31929 ft 488 kts 141°
2026-04-23 19:30 -10.28081 15.59813 32590 ft 489 kts 141°
2026-04-23 19:30 -10.30702 15.62009 32989 ft 488 kts 141°
2026-04-23 19:30 -10.35928 15.66392 33785 ft 487 kts 141°
2026-04-23 19:31 -10.38537 15.68580 34158 ft 486 kts 141°
2026-04-23 19:31 -10.41137 15.70761 34513 ft 485 kts 140°
2026-04-23 19:31 -10.43746 15.72950 34717 ft 488 kts 140°
2026-04-23 19:31 -10.46377 15.75159 34825 ft 493 kts 140°
2026-04-23 19:32 -10.49040 15.77395 34872 ft 500 kts 140°
2026-04-23 19:32 -10.54420 15.81914 34888 ft 503 kts 140°
2026-04-23 19:33 -10.59840 15.86467 34892 ft 506 kts 140°
2026-04-23 19:33 -10.67976 15.93304 34898 ft 506 kts 140°
2026-04-23 19:34 -10.73397 15.97863 34896 ft 506 kts 140°
2026-04-23 19:35 -10.81506 16.04687 34908 ft 503 kts 141°
2026-04-23 19:35 -10.86906 16.09227 34900 ft 503 kts 142°
2026-04-23 19:35 -10.89791 16.11149 34880 ft 504 kts 156°
2026-04-23 19:36 -10.93117 16.12252 34883 ft 504 kts 171°
2026-04-23 19:36 -11.00100 16.13314 34895 ft 505 kts 171°
2026-04-23 19:37 -11.06973 16.14538 34903 ft 505 kts 172°
2026-04-23 19:37 -11.13932 16.15443 34904 ft 504 kts 174°
2026-04-23 19:38 -11.20909 16.16211 34911 ft 504 kts 174°
2026-04-23 19:38 -11.27885 16.16972 34908 ft 504 kts 174°
2026-04-23 19:39 -11.34867 16.17717 34911 ft 504 kts 174°
2026-04-23 19:39 -11.41842 16.18456 34910 ft 504 kts 174°
2026-04-23 19:40 -11.48768 16.19189 34905 ft 487 kts 174°
2026-04-23 19:40 -11.52064 16.19538 34908 ft 468 kts 175°
2026-04-23 19:40 -11.55325 16.19883 34923 ft 477 kts 174°
2026-04-23 19:40 -11.58685 16.20235 34916 ft 493 kts 174°
2026-04-23 19:41 -11.62130 16.20598 34915 ft 501 kts 175°
2026-04-23 19:41 -11.69037 16.21329 34896 ft 497 kts 175°
2026-04-23 19:42 -11.75907 16.22056 34905 ft 496 kts 175°
2026-04-23 19:42 -11.82779 16.22783 34906 ft 496 kts 175°
2026-04-23 19:43 -11.89646 16.23509 34906 ft 496 kts 175°
2026-04-23 19:43 -11.96515 16.24237 34911 ft 497 kts 175°
2026-04-23 19:44 -12.03396 16.24965 34913 ft 497 kts 175°
2026-04-23 19:44 -12.10276 16.25695 34913 ft 497 kts 175°
2026-04-23 19:45 -12.17157 16.26425 34917 ft 497 kts 175°
2026-04-23 19:45 -12.24042 16.27157 34920 ft 497 kts 175°
2026-04-23 19:46 -12.30917 16.27906 34922 ft 497 kts 175°
2026-04-23 19:46 -12.37810 16.28666 34926 ft 498 kts 175°
2026-04-23 19:47 -12.43538 16.29293 34932 ft 498 kts 175°
2026-04-23 19:47 -12.50438 16.30048 34931 ft 498 kts 175°
2026-04-23 19:48 -12.57335 16.30804 34936 ft 498 kts 175°
2026-04-23 19:48 -12.65352 16.31683 34932 ft 499 kts 175°
2026-04-23 19:49 -12.72257 16.32440 34935 ft 500 kts 175°
2026-04-23 19:49 -12.78055 16.33077 34935 ft 500 kts 175°
2026-04-23 19:50 -12.84972 16.33836 34938 ft 500 kts 175°
2026-04-23 19:50 -12.91883 16.34595 34938 ft 500 kts 175°
2026-04-23 19:51 -12.98755 16.35351 34934 ft 500 kts 175°
2026-04-23 19:51 -13.05669 16.36111 34935 ft 500 kts 175°
2026-04-23 19:52 -13.12587 16.36872 34936 ft 500 kts 175°
2026-04-23 19:52 -13.19547 16.37638 34935 ft 500 kts 175°
2026-04-23 19:53 -13.26417 16.38395 34934 ft 500 kts 175°
2026-04-23 19:53 -13.33337 16.39158 34936 ft 500 kts 175°
2026-04-23 19:54 -13.40260 16.39921 34934 ft 501 kts 175°
2026-04-23 19:54 -13.47188 16.40685 34935 ft 501 kts 175°
2026-04-23 19:55 -13.54118 16.41450 34937 ft 501 kts 175°
2026-04-23 19:55 -13.61049 16.42216 34939 ft 501 kts 175°
2026-04-23 19:56 -13.67981 16.42983 34939 ft 501 kts 176°
2026-04-23 19:56 -13.74675 16.44868 34910 ft 505 kts 149°
2026-04-23 19:57 -13.80249 16.49278 34939 ft 509 kts 143°
2026-04-23 19:57 -13.85872 16.53733 34932 ft 510 kts 143°
2026-04-23 19:58 -13.91338 16.58399 34935 ft 511 kts 140°
2026-04-23 19:58 -13.96686 16.63223 34941 ft 511 kts 140°
2026-04-23 19:59 -14.02023 16.68062 34937 ft 512 kts 140°
2026-04-23 19:59 -14.07370 16.72934 34938 ft 514 kts 140°
2026-04-23 20:00 -14.12711 16.77815 34942 ft 513 kts 140°
2026-04-23 20:00 -14.18041 16.82693 34940 ft 513 kts 140°
2026-04-23 20:01 -14.23375 16.87578 34942 ft 513 kts 140°
2026-04-23 20:01 -14.28704 16.92462 34940 ft 513 kts 140°
2026-04-23 20:02 -14.34033 16.97351 34943 ft 513 kts 140°
2026-04-23 20:02 -14.39346 17.02226 34945 ft 515 kts 140°
2026-04-23 20:03 -14.44738 17.07178 34939 ft 515 kts 140°
2026-04-23 20:03 -14.50049 17.12060 34939 ft 514 kts 140°
2026-04-23 20:04 -14.55387 17.16969 34940 ft 514 kts 140°
2026-04-23 20:04 -14.60727 17.21883 34944 ft 514 kts 140°
2026-04-23 20:05 -14.66064 17.26797 34943 ft 514 kts 140°
2026-04-23 20:05 -14.71399 17.31714 34944 ft 514 kts 140°
2026-04-23 20:06 -14.76735 17.36634 34940 ft 514 kts 140°
2026-04-23 20:06 -14.82070 17.41558 34943 ft 514 kts 140°
2026-04-23 20:07 -14.87398 17.46478 34940 ft 513 kts 140°
2026-04-23 20:07 -14.92716 17.51393 34941 ft 513 kts 140°
2026-04-23 20:08 -14.98036 17.56313 34938 ft 514 kts 140°
2026-04-23 20:08 -15.03337 17.61217 34941 ft 515 kts 140°
2026-04-23 20:09 -15.08681 17.66164 34938 ft 516 kts 140°
2026-04-23 20:09 -15.14026 17.71117 34937 ft 516 kts 140°
2026-04-23 20:10 -15.18504 17.75270 34937 ft 516 kts 140°
2026-04-23 20:10 -15.24704 17.81023 34937 ft 514 kts 140°
2026-04-23 20:11 -15.30033 17.85971 34943 ft 516 kts 140°
2026-04-23 20:11 -15.35383 17.90942 34939 ft 517 kts 140°
2026-04-23 20:12 -15.40741 17.95924 34940 ft 518 kts 140°
2026-04-23 20:12 -15.46099 18.00910 34936 ft 518 kts 140°
2026-04-23 20:13 -15.51455 18.05898 34935 ft 517 kts 140°
2026-04-23 20:13 -15.56809 18.10888 34935 ft 518 kts 140°
2026-04-23 20:14 -15.62167 18.15885 34933 ft 519 kts 141°
2026-04-23 20:14 -15.67544 18.20902 34936 ft 520 kts 141°
2026-04-23 20:15 -15.72921 18.25924 34934 ft 520 kts 141°
2026-04-23 20:15 -15.78298 18.30950 34935 ft 520 kts 141°
2026-04-23 20:16 -15.83675 18.35979 34936 ft 520 kts 140°
2026-04-23 20:16 -15.89050 18.41010 34947 ft 520 kts 140°
2026-04-23 20:17 -15.94430 18.46051 34939 ft 521 kts 141°
2026-04-23 20:17 -15.99782 18.51066 34936 ft 522 kts 141°
2026-04-23 20:18 -16.05171 18.56122 34937 ft 522 kts 141°
2026-04-23 20:18 -16.10558 18.61180 34938 ft 522 kts 141°
2026-04-23 20:19 -16.15942 18.66239 34937 ft 522 kts 141°
2026-04-23 20:19 -16.21325 18.71301 34951 ft 522 kts 141°
2026-04-23 20:20 -16.26718 18.76375 34945 ft 523 kts 141°
2026-04-23 20:20 -16.32114 18.81456 34945 ft 523 kts 141°
2026-04-23 20:21 -16.37507 18.86539 34952 ft 523 kts 141°
2026-04-23 20:21 -16.42895 18.91622 34954 ft 523 kts 141°
2026-04-23 20:22 -16.48281 18.96706 34953 ft 523 kts 141°
2026-04-23 20:22 -16.53669 19.01797 34953 ft 524 kts 141°
2026-04-23 20:23 -16.59075 19.06906 34957 ft 525 kts 141°
2026-04-23 20:23 -16.64483 19.12023 34949 ft 525 kts 141°
2026-04-23 20:24 -16.69889 19.17142 34957 ft 524 kts 141°
2026-04-23 20:24 -16.75284 19.22254 34962 ft 524 kts 141°
2026-04-23 20:25 -16.80682 19.27374 34963 ft 524 kts 141°
2026-04-23 20:25 -16.86080 19.32498 34969 ft 525 kts 142°
2026-04-23 20:26 -16.91492 19.37637 34966 ft 526 kts 142°
2026-04-23 20:26 -16.96901 19.42780 34970 ft 526 kts 142°
2026-04-23 20:27 -17.02311 19.47928 34971 ft 526 kts 142°
2026-04-23 20:27 -17.07719 19.53078 34975 ft 526 kts 142°
2026-04-23 20:28 -17.13123 19.58229 34982 ft 526 kts 142°
2026-04-23 20:28 -17.18538 19.63393 34982 ft 527 kts 142°
2026-04-23 20:29 -17.23958 19.68566 34985 ft 528 kts 142°
2026-04-23 20:29 -17.29339 19.73708 34989 ft 528 kts 142°
2026-04-23 20:30 -17.34757 19.78888 34990 ft 528 kts 142°
2026-04-23 20:30 -17.42880 19.86664 35000 ft 527 kts 142°
2026-04-23 20:31 -17.48300 19.91856 34999 ft 529 kts 142°
2026-04-23 20:31 -17.53729 19.97062 34996 ft 529 kts 142°
2026-04-23 20:32 -17.59155 20.02270 34998 ft 529 kts 142°
2026-04-23 20:32 -17.64579 20.07480 34998 ft 529 kts 142°
2026-04-23 20:33 -17.70005 20.12697 34997 ft 529 kts 142°
2026-04-23 20:33 -17.75427 20.17916 34998 ft 529 kts 142°
2026-04-23 20:34 -17.80841 20.23130 35006 ft 529 kts 142°
2026-04-23 20:34 -17.86259 20.28348 35003 ft 528 kts 143°
2026-04-23 20:35 -17.91878 20.33278 35009 ft 525 kts 146°
2026-04-23 20:35 -17.97564 20.38109 35007 ft 526 kts 146°
2026-04-23 20:36 -18.02285 20.42125 35021 ft 526 kts 147°
2026-04-23 20:36 -18.08016 20.46921 35001 ft 527 kts 147°
2026-04-23 20:37 -18.13751 20.51707 35022 ft 526 kts 147°
2026-04-23 20:37 -18.19478 20.56488 35020 ft 526 kts 147°
2026-04-23 20:38 -18.25205 20.61270 35030 ft 526 kts 147°
2026-04-23 20:38 -18.30932 20.66055 35041 ft 526 kts 147°
2026-04-23 20:39 -18.36672 20.70853 35019 ft 528 kts 147°
2026-04-23 20:39 -18.42422 20.75665 35017 ft 528 kts 147°
2026-04-23 20:40 -18.48168 20.80479 35029 ft 528 kts 147°
2026-04-23 20:40 -18.53915 20.85298 35031 ft 527 kts 147°
2026-04-23 20:41 -18.59646 20.90107 35046 ft 527 kts 147°
2026-04-23 20:41 -18.65390 20.94930 35038 ft 528 kts 147°
2026-04-23 20:42 -18.70742 21.00293 35020 ft 541 kts 129°
2026-04-23 20:42 -18.74670 21.07104 35028 ft 545 kts 126°
2026-04-23 20:43 -18.78760 21.13769 35031 ft 545 kts 127°
2026-04-23 20:43 -18.82742 21.20591 35037 ft 546 kts 125°
2026-04-23 20:44 -18.86602 21.27496 35048 ft 546 kts 125°
2026-04-23 20:44 -18.90468 21.34422 35042 ft 548 kts 125°
2026-04-23 20:45 -18.94329 21.41368 35041 ft 549 kts 124°
2026-04-23 20:45 -18.98187 21.48329 35039 ft 549 kts 124°
2026-04-23 20:46 -19.02038 21.55288 35039 ft 549 kts 124°
2026-04-23 20:46 -19.05890 21.62255 35041 ft 549 kts 124°
2026-04-23 20:47 -19.09736 21.69222 35042 ft 549 kts 124°
2026-04-23 20:47 -19.13581 21.76193 35061 ft 549 kts 124°
2026-04-23 20:48 -19.17433 21.83186 35048 ft 551 kts 124°
2026-04-23 20:48 -19.21268 21.90155 35037 ft 552 kts 124°
2026-04-23 20:49 -19.25123 21.97169 35047 ft 552 kts 124°
2026-04-23 20:49 -19.28964 22.04198 35045 ft 552 kts 124°
2026-04-23 20:50 -19.32643 22.11347 35040 ft 553 kts 122°
2026-04-23 20:50 -19.36291 22.18517 35042 ft 553 kts 123°
2026-04-23 20:51 -19.39971 22.25662 35061 ft 553 kts 123°
2026-04-23 20:51 -19.43656 22.32828 35053 ft 555 kts 123°
2026-04-23 20:52 -19.47265 22.40061 35044 ft 554 kts 123°
2026-04-23 20:52 -19.51075 22.47147 35029 ft 553 kts 124°
2026-04-23 20:53 -19.54874 22.54241 35054 ft 553 kts 123°
2026-04-23 20:53 -19.58621 22.61369 35056 ft 553 kts 123°
2026-04-23 20:54 -19.62369 22.68495 35059 ft 553 kts 123°
2026-04-23 20:54 -19.66116 22.75629 35065 ft 554 kts 123°
2026-04-23 20:55 -19.69868 22.82783 35064 ft 555 kts 123°
2026-04-23 20:55 -19.73612 22.89937 35068 ft 554 kts 123°
2026-04-23 20:56 -19.77353 22.97090 35066 ft 554 kts 123°
2026-04-23 20:56 -19.81092 23.04249 35062 ft 554 kts 123°
2026-04-23 20:57 -19.84826 23.11406 35072 ft 554 kts 123°
2026-04-23 20:57 -19.88555 23.18564 35131 ft 553 kts 123°
2026-04-23 20:58 -19.92283 23.25728 35125 ft 554 kts 123°
2026-04-23 20:58 -19.96011 23.32901 35149 ft 555 kts 123°
2026-04-23 20:59 -20.00119 23.39768 35144 ft 546 kts 134°
2026-04-23 20:59 -20.05004 23.45935 35080 ft 546 kts 134°
2026-04-23 21:00 -20.09779 23.52221 35085 ft 546 kts 134°
2026-04-23 21:00 -20.14618 23.58435 35106 ft 545 kts 135°
2026-04-23 21:01 -20.19509 23.64615 35088 ft 546 kts 135°
2026-04-23 21:01 -20.24401 23.70808 35089 ft 546 kts 135°
2026-04-23 21:02 -20.29296 23.77003 35091 ft 546 kts 135°
2026-04-23 21:02 -20.34192 23.83200 35086 ft 546 kts 135°
2026-04-23 21:03 -20.39047 23.89353 35093 ft 546 kts 135°
2026-04-23 21:03 -20.43936 23.95553 35094 ft 546 kts 135°
2026-04-23 21:04 -20.48810 24.01772 35094 ft 547 kts 134°
2026-04-23 21:04 -20.53647 24.08032 35093 ft 547 kts 134°
2026-04-23 21:05 -20.58493 24.14284 35101 ft 546 kts 134°
2026-04-23 21:05 -20.63346 24.20533 35099 ft 546 kts 134°
2026-04-23 21:06 -20.68194 24.26780 35112 ft 547 kts 134°
2026-04-23 21:06 -20.73050 24.33046 35107 ft 548 kts 134°
2026-04-23 21:07 -20.77909 24.39322 35099 ft 548 kts 134°
2026-04-23 21:07 -20.82761 24.45595 35106 ft 548 kts 134°
2026-04-23 21:08 -20.87613 24.51875 35109 ft 548 kts 134°
2026-04-23 21:08 -20.92467 24.58163 35126 ft 548 kts 133°
2026-04-23 21:09 -20.97328 24.64467 35120 ft 550 kts 133°
2026-04-23 21:09 -21.02190 24.70782 35120 ft 550 kts 133°
2026-04-23 21:10 -21.07054 24.77105 35131 ft 550 kts 133°
2026-04-23 21:10 -21.11912 24.83427 35132 ft 550 kts 133°
2026-04-23 21:11 -21.16768 24.89755 35150 ft 550 kts 133°
2026-04-23 21:11 -21.21633 24.96099 35144 ft 551 kts 133°
2026-04-23 21:12 -21.26502 25.02457 35146 ft 552 kts 132°
2026-04-23 21:12 -21.31370 25.08823 35145 ft 552 kts 132°
2026-04-23 21:13 -21.36190 25.15178 35152 ft 553 kts 132°
2026-04-23 21:13 -21.41026 25.21591 35170 ft 553 kts 132°
2026-04-23 21:14 -21.45893 25.27995 35167 ft 554 kts 132°
2026-04-23 21:14 -21.50764 25.34401 35158 ft 554 kts 132°
2026-04-23 21:15 -21.55637 25.40818 35170 ft 554 kts 132°
2026-04-23 21:15 -21.60512 25.47222 35174 ft 554 kts 132°
2026-04-23 21:16 -21.65460 25.53567 35208 ft 553 kts 133°
2026-04-23 21:16 -21.70410 25.59917 35184 ft 554 kts 133°
2026-04-23 21:17 -21.75358 25.66273 35173 ft 554 kts 132°
2026-04-23 21:17 -21.80309 25.72627 35184 ft 554 kts 132°
2026-04-23 21:18 -21.85256 25.78981 35193 ft 554 kts 132°
2026-04-23 21:18 -21.90202 25.85342 35215 ft 554 kts 132°
2026-04-23 21:19 -21.95151 25.91713 35202 ft 555 kts 132°
2026-04-23 21:19 -22.00098 25.98090 35189 ft 555 kts 132°
2026-04-23 21:20 -22.05043 26.04471 35219 ft 555 kts 132°
2026-04-23 21:20 -22.09987 26.10861 35213 ft 555 kts 132°
2026-04-23 21:21 -22.14931 26.17256 35238 ft 555 kts 132°
2026-04-23 21:21 -22.19880 26.23665 35224 ft 556 kts 131°
2026-04-23 21:22 -22.24832 26.30087 35225 ft 557 kts 131°
2026-04-23 21:22 -22.29789 26.36523 35227 ft 558 kts 131°
2026-04-23 21:23 -22.33911 26.41881 35237 ft 558 kts 131°
2026-04-23 21:23 -22.38785 26.48402 35269 ft 558 kts 129°
2026-04-23 21:24 -22.43525 26.55074 35255 ft 561 kts 129°
2026-04-23 21:24 -22.48315 26.61742 35248 ft 562 kts 129°
2026-04-23 21:25 -22.53132 26.68417 35250 ft 563 kts 129°
2026-04-23 21:25 -22.57943 26.75105 35255 ft 563 kts 129°
2026-04-23 21:26 -22.62651 26.81885 35275 ft 564 kts 127°
2026-04-23 21:26 -22.67294 26.88732 35253 ft 565 kts 127°
2026-04-23 21:27 -22.71965 26.95568 35257 ft 564 kts 127°
2026-04-23 21:27 -22.76621 27.02345 35255 ft 564 kts 129°
2026-04-23 21:28 -22.81554 27.09021 35258 ft 564 kts 130°
2026-04-23 21:28 -22.86447 27.15583 35259 ft 564 kts 130°
2026-04-23 21:29 -22.91351 27.22210 35252 ft 562 kts 130°
2026-04-23 21:29 -22.96247 27.28808 35260 ft 561 kts 130°
2026-04-23 21:30 -23.01143 27.35411 35269 ft 561 kts 130°
2026-04-23 21:30 -23.06033 27.42017 35271 ft 561 kts 130°
2026-04-23 21:31 -23.10922 27.48627 35285 ft 562 kts 130°
2026-04-23 21:31 -23.15812 27.55251 35277 ft 561 kts 130°
2026-04-23 21:32 -23.20671 27.61867 35285 ft 561 kts 129°
2026-04-23 21:32 -23.25207 27.68769 35286 ft 561 kts 125°
2026-04-23 21:33 -23.29645 27.75761 35296 ft 561 kts 126°
2026-04-23 21:33 -23.34141 27.82717 35293 ft 563 kts 126°
2026-04-23 21:34 -23.38635 27.89710 35303 ft 564 kts 125°
2026-04-23 21:34 -23.43127 27.96717 35309 ft 564 kts 126°
2026-04-23 21:35 -23.47619 28.03727 35308 ft 564 kts 125°
2026-04-23 21:35 -23.52103 28.10737 35340 ft 563 kts 126°
2026-04-23 21:36 -23.58803 28.21226 35317 ft 562 kts 125°
2026-04-23 21:37 -23.63268 28.28230 35333 ft 562 kts 125°
2026-04-23 21:37 -23.67731 28.35238 35338 ft 563 kts 125°
2026-04-23 21:38 -23.72188 28.42250 35343 ft 561 kts 126°
2026-04-23 21:38 -23.76629 28.49240 35351 ft 560 kts 125°
2026-04-23 21:39 -23.81067 28.56241 35359 ft 561 kts 125°
2026-04-23 21:39 -23.85509 28.63257 35363 ft 561 kts 125°
2026-04-23 21:40 -23.89944 28.70272 35364 ft 560 kts 125°
2026-04-23 21:40 -23.94364 28.77273 35366 ft 559 kts 125°
2026-04-23 21:41 -23.98783 28.84278 35384 ft 561 kts 125°
2026-04-23 21:41 -24.03215 28.91318 35384 ft 562 kts 125°
2026-04-23 21:42 -24.07637 28.98353 35372 ft 561 kts 125°
2026-04-23 21:42 -24.12049 29.05382 35384 ft 559 kts 125°
2026-04-23 21:43 -24.16450 29.12399 35401 ft 559 kts 125°
2026-04-23 21:43 -24.20858 29.19437 35396 ft 561 kts 124°
2026-04-23 21:44 -24.25237 29.26443 35380 ft 561 kts 124°
2026-04-23 21:44 -24.29631 29.33479 35380 ft 559 kts 124°
2026-04-23 21:45 -24.34010 29.40504 35388 ft 558 kts 124°
2026-04-23 21:45 -24.38387 29.47535 35401 ft 559 kts 124°
2026-04-23 21:46 -24.42772 29.54591 35380 ft 560 kts 124°
2026-04-23 21:46 -24.47147 29.61639 35376 ft 558 kts 124°
2026-04-23 21:47 -24.51513 29.68682 35382 ft 558 kts 124°
2026-04-23 21:47 -24.55871 29.75723 35382 ft 557 kts 124°
2026-04-23 21:48 -24.60230 29.82773 35390 ft 558 kts 124°
2026-04-23 21:48 -24.64584 29.89829 35378 ft 558 kts 124°
2026-04-23 21:49 -24.68937 29.96891 35386 ft 558 kts 124°
2026-04-23 21:49 -24.73295 30.03973 35388 ft 559 kts 124°
2026-04-23 21:50 -24.77641 30.11045 35421 ft 557 kts 124°
2026-04-23 21:50 -24.81978 30.18112 35393 ft 557 kts 124°
2026-04-23 21:51 -24.86308 30.25182 35401 ft 556 kts 124°
2026-04-23 21:51 -24.90633 30.32251 35411 ft 556 kts 124°
2026-04-23 21:52 -24.94954 30.39324 35415 ft 557 kts 124°
2026-04-23 21:52 -24.99282 30.46418 35415 ft 558 kts 124°
2026-04-23 21:53 -25.03611 30.53523 35438 ft 558 kts 124°
2026-04-23 21:53 -25.07938 30.60635 35439 ft 558 kts 124°
2026-04-23 21:54 -25.12260 30.67753 35443 ft 558 kts 124°
2026-04-23 21:54 -25.16581 30.74879 35460 ft 559 kts 124°
2026-04-23 21:55 -25.20862 30.81950 35451 ft 557 kts 124°
2026-04-23 21:55 -25.25184 30.89101 35447 ft 556 kts 124°
2026-04-23 21:56 -25.29480 30.96216 35433 ft 556 kts 124°
2026-04-23 21:56 -25.33738 31.03282 35417 ft 556 kts 124°
2026-04-23 21:57 -25.38013 31.10400 35436 ft 555 kts 125°
2026-04-23 21:57 -25.43002 31.16874 35436 ft 553 kts 136°
2026-04-23 21:58 -25.48391 31.22959 35424 ft 554 kts 135°
2026-04-23 21:58 -25.53691 31.29228 35412 ft 553 kts 135°
2026-04-23 21:59 -25.58921 31.35365 35425 ft 552 kts 135°
2026-04-23 21:59 -25.64210 31.41548 35403 ft 553 kts 135°
2026-04-23 22:00 -25.72143 31.50849 35401 ft 554 kts 135°
2026-04-23 22:00 -25.77429 31.57054 35402 ft 552 kts 135°
2026-04-23 22:01 -25.82706 31.63259 35397 ft 554 kts 135°
2026-04-23 22:01 -25.87927 31.69556 35373 ft 556 kts 128°
2026-04-23 22:02 -25.89926 31.73218 35353 ft 553 kts 111°
2026-04-23 22:02 -25.90997 31.77278 35357 ft 546 kts 95°
2026-04-23 22:02 -25.91452 31.85670 35363 ft 545 kts 87°
2026-04-23 22:03 -25.91347 31.94081 35351 ft 540 kts 76°
2026-04-23 22:03 -25.90434 31.98067 35342 ft 527 kts 64°
2026-04-23 22:03 -25.89094 32.01845 35342 ft 527 kts 62°
2026-04-23 22:04 -25.86568 32.09525 35335 ft 531 kts 65°
2026-04-23 22:04 -25.84044 32.17140 35337 ft 528 kts 63°
2026-04-23 22:05 -25.81306 32.24698 35327 ft 527 kts 62°
2026-04-23 22:05 -25.78542 32.32235 35320 ft 527 kts 62°
2026-04-23 22:06 -25.75769 32.39770 35314 ft 529 kts 62°
2026-04-23 22:06 -25.72965 32.47341 35314 ft 532 kts 62°
2026-04-23 22:07 -25.70152 32.54928 35309 ft 532 kts 62°
2026-04-23 22:07 -25.68280 32.62890 35267 ft 545 kts 87°
2026-04-23 22:08 -25.68704 32.67072 35273 ft 550 kts 104°
2026-04-23 22:08 -25.70108 32.71018 35278 ft 553 kts 121°
2026-04-23 22:08 -25.72387 32.74422 35285 ft 549 kts 138°
2026-04-23 22:08 -25.75359 32.77025 35311 ft 541 kts 155°
2026-04-23 22:09 -25.78775 32.78633 35299 ft 527 kts 172°
2026-04-23 22:09 -25.82345 32.79141 35292 ft 510 kts 189°
2026-04-23 22:09 -25.85775 32.78548 35299 ft 491 kts 206°
2026-04-23 22:09 -25.88783 32.76945 35298 ft 472 kts 224°
2026-04-23 22:10 -25.90417 32.75416 35291 ft 459 kts 235°
2026-04-23 22:10 -25.92200 32.72573 35282 ft 442 kts 252°
2026-04-23 22:10 -25.93099 32.68252 35294 ft 426 kts 273°
2026-04-23 22:10 -25.93042 32.66081 35303 ft 425 kts 277°
2026-04-23 22:11 -25.92713 32.59476 35316 ft 430 kts 274°
2026-04-23 22:11 -25.92639 32.52817 35317 ft 431 kts 274°
2026-04-23 22:12 -25.92537 32.46158 35317 ft 431 kts 274°
2026-04-23 22:12 -25.92427 32.39496 35314 ft 431 kts 274°
2026-04-23 22:13 -25.92317 32.32832 35324 ft 432 kts 274°
2026-04-23 22:13 -25.92203 32.26152 35329 ft 433 kts 274°
2026-04-23 22:14 -25.92085 32.19462 35333 ft 433 kts 274°
2026-04-23 22:14 -25.91965 32.12768 35339 ft 433 kts 274°
2026-04-23 22:15 -25.91843 32.06081 35367 ft 433 kts 275°
2026-04-23 22:15 -25.91631 31.99455 35328 ft 430 kts 282°
2026-04-23 22:16 -25.90795 31.96308 35344 ft 424 kts 298°
2026-04-23 22:16 -25.89074 31.93670 35334 ft 425 kts 315°
2026-04-23 22:16 -25.86598 31.91793 35335 ft 432 kts 333°
2026-04-23 22:16 -25.83700 31.90926 35330 ft 446 kts 350°
2026-04-23 22:17 -25.80563 31.91132 35339 ft 463 kts
2026-04-23 22:17 -25.77515 31.92447 35326 ft 481 kts 24°
2026-04-23 22:17 -25.74846 31.94794 35326 ft 500 kts 41°
2026-04-23 22:17 -25.72820 31.97997 35330 ft 517 kts 58°
2026-04-23 22:18 -25.71634 32.01805 35316 ft 532 kts 76°
2026-04-23 22:18 -25.71410 32.05927 35328 ft 542 kts 93°
2026-04-23 22:18 -25.72186 32.10026 35316 ft 547 kts 109°
2026-04-23 22:18 -25.73668 32.13913 35336 ft 549 kts 115°
2026-04-23 22:19 -25.76659 32.21726 35321 ft 550 kts 104°
2026-04-23 22:19 -25.77363 32.25861 35305 ft 543 kts 89°
2026-04-23 22:19 -25.77222 32.30015 35303 ft 536 kts 77°
2026-04-23 22:20 -25.75548 32.38014 35311 ft 532 kts 68°
2026-04-23 22:20 -25.73199 32.45809 35312 ft 533 kts 64°
2026-04-23 22:21 -25.70565 32.53482 35314 ft 532 kts 63°
2026-04-23 22:21 -25.68294 32.61315 35293 ft 542 kts 80°
2026-04-23 22:22 -25.68328 32.65442 35352 ft 546 kts 97°
2026-04-23 22:22 -25.69337 32.69527 35278 ft 555 kts 114°
2026-04-23 22:22 -25.71281 32.73186 35279 ft 551 kts 131°
2026-04-23 22:22 -25.73997 32.76136 35279 ft 544 kts 148°
2026-04-23 22:23 -25.77262 32.78158 35303 ft 533 kts 165°
2026-04-23 22:23 -25.80802 32.79113 35295 ft 517 kts 182°
2026-04-23 22:23 -25.84326 32.78954 35298 ft 499 kts 200°
2026-04-23 22:23 -25.87537 32.77737 35291 ft 480 kts 217°
2026-04-23 22:24 -25.90169 32.75611 35295 ft 461 kts 234°
2026-04-23 22:24 -25.92011 32.72796 35284 ft 444 kts 251°
2026-04-23 22:24 -25.92911 32.69596 35289 ft 430 kts 268°
2026-04-23 22:24 -25.92959 32.66302 35303 ft 426 kts 276°
2026-04-23 22:25 -25.92632 32.59681 35318 ft 431 kts 274°
2026-04-23 22:25 -25.92565 32.53009 35316 ft 432 kts 274°
2026-04-23 22:26 -25.92473 32.46340 35317 ft 432 kts 274°
2026-04-23 22:26 -25.92372 32.39674 35320 ft 432 kts 274°
2026-04-23 22:27 -25.92271 32.33006 35324 ft 432 kts 274°
2026-04-23 22:27 -25.92166 32.26334 35331 ft 432 kts 274°
2026-04-23 22:28 -25.92058 32.19658 35339 ft 432 kts 274°
2026-04-23 22:28 -25.91947 32.12983 35342 ft 432 kts 274°
2026-04-23 22:29 -25.91834 32.06309 35356 ft 432 kts 275°
2026-04-23 22:29 -25.91663 31.99639 35335 ft 431 kts 280°
2026-04-23 22:30 -25.90924 31.96447 35333 ft 426 kts 296°
2026-04-23 22:30 -25.89295 31.93733 35328 ft 425 kts 313°
2026-04-23 22:30 -25.86921 31.91769 35340 ft 432 kts 330°
2026-04-23 22:30 -25.84027 31.90761 35329 ft 445 kts 348°
2026-04-23 22:31 -25.80934 31.90826 35334 ft 461 kts
2026-04-23 22:31 -25.77856 31.91994 35339 ft 479 kts 22°
2026-04-23 22:31 -25.75118 31.94212 35339 ft 498 kts 39°
2026-04-23 22:31 -25.72994 31.97310 35317 ft 515 kts 56°
2026-04-23 22:32 -25.71683 32.01059 35327 ft 530 kts 73°
2026-04-23 22:32 -25.71327 32.05150 35331 ft 540 kts 90°
2026-04-23 22:32 -25.71972 32.09272 35317 ft 546 kts 107°
2026-04-23 22:32 -25.73397 32.13178 35340 ft 548 kts 114°
2026-04-23 22:33 -25.76456 32.20956 35327 ft 551 kts 107°
2026-04-23 22:33 -25.77315 32.25070 35310 ft 545 kts 92°
2026-04-23 22:33 -25.77312 32.29239 35315 ft 537 kts 79°
2026-04-23 22:34 -25.75750 32.37272 35309 ft 532 kts 68°
2026-04-23 22:34 -25.73439 32.45073 35317 ft 533 kts 65°
2026-04-23 22:35 -25.70824 32.52755 35314 ft 532 kts 63°
2026-04-23 22:35 -25.68411 32.60515 35297 ft 540 kts 77°
2026-04-23 22:36 -25.68261 32.64685 35316 ft 545 kts 95°
2026-04-23 22:36 -25.69106 32.68797 35302 ft 553 kts 111°
2026-04-23 22:36 -25.70900 32.72554 35279 ft 551 kts 128°
2026-04-23 22:36 -25.73498 32.75641 35281 ft 545 kts 146°
2026-04-23 22:37 -25.76686 32.77827 35302 ft 535 kts 162°
2026-04-23 22:37 -25.80198 32.78963 35292 ft 520 kts 179°
2026-04-23 22:37 -25.83740 32.78987 35297 ft 502 kts 197°
2026-04-23 22:37 -25.87025 32.77936 35295 ft 483 kts 214°
2026-04-23 22:38 -25.89771 32.75943 35295 ft 464 kts 231°
2026-04-23 22:38 -25.91755 32.73227 35288 ft 447 kts 248°
2026-04-23 22:38 -25.92821 32.70057 35290 ft 433 kts 265°
2026-04-23 22:38 -25.92977 32.66756 35298 ft 427 kts 276°
2026-04-23 22:39 -25.92638 32.60135 35322 ft 432 kts 275°
2026-04-23 22:39 -25.92565 32.53454 35318 ft 433 kts 274°
2026-04-23 22:40 -25.92476 32.46773 35315 ft 432 kts 274°
2026-04-23 22:41 -25.92326 32.36763 35318 ft 432 kts 274°
2026-04-23 22:41 -25.92223 32.30091 35328 ft 432 kts 274°
2026-04-23 22:42 -25.92118 32.23428 35331 ft 431 kts 274°
2026-04-23 22:42 -25.92010 32.16768 35341 ft 431 kts 274°
2026-04-23 22:43 -25.91898 32.10108 35348 ft 431 kts 274°
2026-04-23 22:43 -25.91786 32.03448 35347 ft 432 kts 274°
2026-04-23 22:44 -25.91040 31.96894 35325 ft 427 kts 294°
2026-04-23 22:44 -25.89491 31.94114 35343 ft 425 kts 311°
2026-04-23 22:44 -25.87213 31.92083 35337 ft 431 kts 328°
2026-04-23 22:44 -25.84361 31.90955 35335 ft 444 kts 346°
2026-04-23 22:45 -25.81235 31.90901 35326 ft 459 kts
2026-04-23 22:45 -25.78129 31.91963 35339 ft 478 kts 20°
2026-04-23 22:45 -25.75347 31.94079 35340 ft 496 kts 37°
2026-04-23 22:45 -25.73149 31.97099 35328 ft 513 kts 54°
2026-04-23 22:46 -25.71751 32.00788 35330 ft 528 kts 71°
2026-04-23 22:46 -25.71295 32.04864 35329 ft 539 kts 89°
2026-04-23 22:46 -25.71839 32.08990 35313 ft 545 kts 106°
2026-04-23 22:47 -25.74820 32.16762 35338 ft 551 kts 114°
2026-04-23 22:47 -25.77237 32.24774 35311 ft 546 kts 94°
2026-04-23 22:47 -25.77308 32.28950 35310 ft 538 kts 80°
2026-04-23 22:48 -25.76727 32.33027 35312 ft 534 kts 72°
2026-04-23 22:48 -25.74715 32.40932 35314 ft 533 kts 66°
2026-04-23 22:49 -25.72242 32.48669 35319 ft 532 kts 64°
2026-04-23 22:49 -25.69557 32.56302 35318 ft 531 kts 63°
2026-04-23 22:49 -25.68480 32.60242 35295 ft 539 kts 76°
2026-04-23 22:50 -25.68295 32.64407 35309 ft 545 kts 94°
2026-04-23 22:50 -25.69109 32.68523 35302 ft 553 kts 111°
2026-04-23 22:50 -25.70873 32.72296 35274 ft 551 kts 128°
2026-04-23 22:50 -25.73443 32.75402 35272 ft 545 kts 145°
2026-04-23 22:51 -25.76617 32.77619 35302 ft 535 kts 162°
2026-04-23 22:51 -25.80119 32.78786 35293 ft 520 kts 179°
2026-04-23 22:51 -25.83668 32.78843 35296 ft 502 kts 196°
2026-04-23 22:51 -25.86960 32.77823 35294 ft 484 kts 213°
2026-04-23 22:52 -25.89727 32.75856 35292 ft 465 kts 230°
2026-04-23 22:52 -25.91742 32.73151 35289 ft 448 kts 248°
2026-04-23 22:52 -25.92842 32.69986 35284 ft 434 kts 264°
2026-04-23 22:52 -25.93022 32.66682 35302 ft 428 kts 276°
2026-04-23 22:53 -25.92824 32.63372 35308 ft 431 kts 276°
2026-04-23 22:53 -25.92625 32.56701 35316 ft 433 kts 274°
2026-04-23 22:54 -25.92557 32.50055 35315 ft 433 kts 274°
2026-04-23 22:54 -25.92453 32.43372 35319 ft 433 kts 274°
2026-04-23 22:55 -25.92349 32.36690 35320 ft 433 kts 274°
2026-04-23 22:55 -25.92243 32.30015 35334 ft 432 kts 274°
2026-04-23 22:56 -25.92134 32.23356 35329 ft 431 kts 274°
2026-04-23 22:56 -25.92020 32.16709 35336 ft 430 kts 274°
2026-04-23 22:57 -25.91906 32.10063 35336 ft 431 kts 274°
2026-04-23 22:57 -25.91789 32.03409 35337 ft 432 kts 275°
2026-04-23 22:58 -25.91010 31.96860 35326 ft 427 kts 295°
2026-04-23 22:58 -25.90062 31.94958 35338 ft 425 kts 306°
2026-04-23 22:58 -25.87966 31.92656 35325 ft 429 kts 323°
2026-04-23 22:58 -25.85252 31.91235 35327 ft 439 kts 341°
2026-04-23 22:59 -25.82176 31.90855 35326 ft 454 kts 358°
2026-04-23 22:59 -25.79040 31.91588 35326 ft 472 kts 15°
2026-04-23 22:59 -25.76133 31.93406 35325 ft 490 kts 32°
2026-04-23 22:59 -25.73740 31.96181 35324 ft 508 kts 49°
2026-04-23 23:00 -25.72090 31.99702 35327 ft 524 kts 66°
2026-04-23 23:00 -25.71347 32.03696 35324 ft 536 kts 84°
2026-04-23 23:00 -25.71599 32.07848 35303 ft 544 kts 101°
2026-04-23 23:00 -25.72786 32.11838 35330 ft 547 kts 113°
2026-04-23 23:01 -25.74376 32.15685 35343 ft 551 kts 114°
2026-04-23 23:01 -25.77064 32.23633 35309 ft 549 kts 98°
2026-04-23 23:01 -25.77366 32.27816 35302 ft 541 kts 83°
2026-04-23 23:02 -25.76927 32.31929 35303 ft 535 kts 74°
2026-04-23 23:02 -25.75020 32.39880 35309 ft 533 kts 67°
2026-04-23 23:03 -25.72588 32.47642 35317 ft 533 kts 64°
2026-04-23 23:03 -25.69917 32.55297 35314 ft 532 kts 63°
2026-04-23 23:04 -25.68201 32.63243 35283 ft 545 kts 89°
2026-04-23 23:04 -25.68719 32.67400 35354 ft 550 kts 105°
2026-04-23 23:04 -25.70196 32.71325 35281 ft 553 kts 123°
2026-04-23 23:04 -25.72535 32.74669 35250 ft 548 kts 140°
2026-04-23 23:05 -25.75550 32.77184 35295 ft 539 kts 156°
2026-04-23 23:05 -25.78979 32.78687 35283 ft 525 kts 173°
2026-04-23 23:05 -25.82544 32.79089 35290 ft 508 kts 191°
2026-04-23 23:05 -25.85942 32.78394 35294 ft 490 kts 208°
2026-04-23 23:06 -25.88901 32.76699 35294 ft 471 kts 225°
2026-04-23 23:06 -25.91169 32.74193 35287 ft 453 kts 242°
2026-04-23 23:06 -25.92561 32.71141 35288 ft 438 kts 259°
2026-04-23 23:06 -25.92993 32.67846 35291 ft 428 kts 274°
2026-04-23 23:07 -25.92846 32.64545 35307 ft 430 kts 277°
2026-04-23 23:07 -25.92597 32.57879 35312 ft 433 kts 274°
2026-04-23 23:08 -25.92536 32.51185 35321 ft 433 kts 274°
2026-04-23 23:08 -25.92438 32.44495 35315 ft 433 kts 274°
2026-04-23 23:09 -25.92339 32.37809 35316 ft 433 kts 274°
2026-04-23 23:09 -25.92237 32.31123 35324 ft 433 kts 274°
2026-04-23 23:10 -25.92133 32.24452 35326 ft 431 kts 274°
2026-04-23 23:10 -25.92026 32.17789 35333 ft 431 kts 274°
2026-04-23 23:11 -25.91915 32.11128 35329 ft 431 kts 274°
2026-04-23 23:11 -25.91803 32.04465 35331 ft 432 kts 275°
2026-04-23 23:12 -25.91320 31.97841 35312 ft 428 kts 289°
2026-04-23 23:12 -25.90027 31.94906 35319 ft 424 kts 307°
2026-04-23 23:12 -25.87919 31.92623 35320 ft 428 kts 324°
2026-04-23 23:12 -25.85193 31.91226 35319 ft 439 kts 341°
2026-04-23 23:13 -25.82120 31.90875 35320 ft 454 kts 358°
2026-04-23 23:13 -25.78985 31.91637 35320 ft 472 kts 15°
2026-04-23 23:13 -25.76094 31.93480 35320 ft 491 kts 32°
2026-04-23 23:13 -25.73717 31.96277 35317 ft 509 kts 50°
2026-04-23 23:14 -25.72088 31.99816 35311 ft 525 kts 67°
2026-04-23 23:14 -25.71369 32.03823 35312 ft 537 kts 84°
2026-04-23 23:14 -25.71646 32.07978 35297 ft 545 kts 101°
2026-04-23 23:14 -25.72850 32.11964 35326 ft 548 kts 113°
2026-04-23 23:15 -25.74426 32.15773 35330 ft 552 kts 114°
2026-04-23 23:15 -25.77095 32.23744 35303 ft 550 kts 97°
2026-04-23 23:15 -25.77367 32.27932 35296 ft 542 kts 83°
2026-04-23 23:16 -25.76909 32.32047 35307 ft 536 kts 74°
2026-04-23 23:16 -25.74983 32.40007 35302 ft 534 kts 67°
2026-04-23 23:17 -25.72542 32.47780 35311 ft 533 kts 64°
2026-04-23 23:17 -25.69865 32.55441 35310 ft 532 kts 63°
2026-04-23 23:18 -25.68229 32.63478 35275 ft 546 kts 90°
2026-04-23 23:18 -25.68816 32.67640 35330 ft 551 kts 106°
2026-04-23 23:18 -25.70361 32.71537 35280 ft 553 kts 124°
2026-04-23 23:18 -25.72754 32.74830 35249 ft 547 kts 141°
2026-04-23 23:19 -25.75802 32.77278 35291 ft 538 kts 158°
2026-04-23 23:19 -25.79251 32.78708 35280 ft 523 kts 175°
2026-04-23 23:19 -25.82812 32.79033 35288 ft 506 kts 192°
2026-04-23 23:19 -25.86189 32.78263 35300 ft 488 kts 209°
2026-04-23 23:20 -25.89104 32.76503 35295 ft 469 kts 226°
2026-04-23 23:20 -25.91313 32.73951 35300 ft 452 kts 243°
2026-04-23 23:20 -25.92639 32.70869 35296 ft 437 kts 261°
2026-04-23 23:20 -25.93007 32.67573 35301 ft 428 kts 274°
2026-04-23 23:21 -25.92843 32.64270 35311 ft 430 kts 277°
2026-04-23 23:21 -25.92605 32.57602 35321 ft 433 kts 274°
2026-04-23 23:22 -25.92543 32.50950 35324 ft 433 kts 274°
2026-04-23 23:22 -25.92444 32.44257 35312 ft 434 kts 274°
2026-04-23 23:23 -25.92343 32.37562 35315 ft 433 kts 274°
2026-04-23 23:23 -25.92241 32.30870 35325 ft 433 kts 274°
2026-04-23 23:24 -25.92135 32.24192 35321 ft 432 kts 274°
2026-04-23 23:24 -25.92025 32.17523 35326 ft 432 kts 274°
2026-04-23 23:25 -25.91913 32.10849 35317 ft 432 kts 274°
2026-04-23 23:25 -25.91799 32.04181 35330 ft 432 kts 275°
2026-04-23 23:26 -25.91242 31.97572 35303 ft 427 kts 291°
2026-04-23 23:26 -25.89870 31.94689 35313 ft 423 kts 308°
2026-04-23 23:26 -25.87698 31.92485 35312 ft 428 kts 325°
2026-04-23 23:26 -25.84939 31.91187 35309 ft 439 kts 342°
2026-04-23 23:27 -25.81848 31.90943 35308 ft 455 kts 360°
2026-04-23 23:27 -25.78731 31.91813 35310 ft 473 kts 17°
2026-04-23 23:27 -25.75880 31.93758 35310 ft 492 kts 34°
2026-04-23 23:27 -25.73571 31.96639 35303 ft 511 kts 51°
2026-04-23 23:28 -25.72027 32.00241 35302 ft 526 kts 69°
2026-04-23 23:28 -25.71407 32.04274 35301 ft 538 kts 85°
2026-04-23 23:28 -25.71785 32.08424 35286 ft 546 kts 103°
2026-04-23 23:28 -25.73062 32.12403 35315 ft 549 kts 114°
2026-04-23 23:29 -25.74667 32.16264 35325 ft 553 kts 114°
2026-04-23 23:29 -25.77204 32.24296 35286 ft 550 kts 95°
2026-04-23 23:29 -25.77349 32.28495 35301 ft 542 kts 81°
2026-04-23 23:30 -25.76810 32.32604 35305 ft 537 kts 73°
2026-04-23 23:30 -25.74822 32.40560 35298 ft 535 kts 66°
2026-04-23 23:31 -25.72354 32.48336 35307 ft 534 kts 64°
2026-04-23 23:31 -25.69662 32.56006 35308 ft 533 kts 63°
2026-04-23 23:31 -25.68540 32.59943 35294 ft 541 kts 75°
2026-04-23 23:32 -25.68279 32.64118 35261 ft 548 kts 92°
2026-04-23 23:32 -25.69006 32.68211 35274 ft 552 kts 109°
2026-04-23 23:32 -25.70692 32.72025 35275 ft 552 kts 126°
2026-04-23 23:32 -25.73204 32.75208 35276 ft 547 kts 143°
2026-04-23 23:33 -25.76335 32.77514 35295 ft 536 kts 160°
2026-04-23 23:33 -25.79820 32.78782 35290 ft 521 kts 177°
2026-04-23 23:33 -25.83368 32.78941 35281 ft 503 kts 194°
2026-04-23 23:33 -25.86691 32.78015 35283 ft 485 kts 211°
2026-04-23 23:34 -25.89514 32.76123 35284 ft 466 kts 229°
2026-04-23 23:34 -25.91600 32.73473 35285 ft 449 kts 246°
2026-04-23 23:34 -25.92781 32.70337 35288 ft 435 kts 263°
2026-04-23 23:34 -25.93026 32.67035 35307 ft 428 kts 275°
2026-04-23 23:35 -25.92837 32.63727 35311 ft 430 kts 277°
2026-04-23 23:35 -25.92624 32.57056 35315 ft 434 kts 274°
2026-04-23 23:36 -25.92556 32.50356 35312 ft 434 kts 274°
2026-04-23 23:36 -25.92453 32.43657 35314 ft 434 kts 274°
2026-04-23 23:37 -25.92350 32.36960 35314 ft 434 kts 274°
2026-04-23 23:37 -25.92244 32.30261 35322 ft 433 kts 274°
2026-04-23 23:38 -25.92135 32.23577 35306 ft 432 kts 274°
2026-04-23 23:38 -25.92021 32.16898 35318 ft 433 kts 275°
2026-04-23 23:39 -25.91906 32.10217 35317 ft 433 kts 275°
2026-04-23 23:39 -25.91790 32.03535 35308 ft 433 kts 275°
2026-04-23 23:40 -25.91045 31.96979 35296 ft 425 kts 295°
2026-04-23 23:40 -25.89529 31.94247 35305 ft 423 kts 311°
2026-04-23 23:40 -25.87233 31.92200 35307 ft 429 kts 329°
2026-04-23 23:40 -25.84395 31.91094 35302 ft 441 kts 346°
2026-04-23 23:41 -25.81284 31.91061 35301 ft 458 kts
2026-04-23 23:41 -25.78199 31.92142 35300 ft 476 kts 20°
2026-04-23 23:41 -25.75435 31.94279 35299 ft 496 kts 37°
2026-04-23 23:41 -25.73258 31.97319 35292 ft 514 kts 54°
2026-04-23 23:42 -25.71884 32.01029 35293 ft 529 kts 72°
2026-04-23 23:42 -25.71453 32.05115 35294 ft 541 kts 89°
2026-04-23 23:42 -25.72024 32.09253 35281 ft 548 kts 106°
2026-04-23 23:43 -25.75031 32.17064 35318 ft 555 kts 114°
2026-04-23 23:43 -25.77330 32.25176 35282 ft 549 kts 91°
2026-04-23 23:43 -25.77292 32.29372 35283 ft 541 kts 79°
2026-04-23 23:44 -25.76646 32.33460 35297 ft 537 kts 71°
2026-04-23 23:44 -25.74573 32.41407 35303 ft 536 kts 66°
2026-04-23 23:45 -25.72068 32.49179 35309 ft 535 kts 63°
2026-04-23 23:45 -25.69365 32.56846 35303 ft 534 kts 64°
2026-04-23 23:45 -25.68348 32.60835 35276 ft 543 kts 78°
2026-04-23 23:46 -25.68248 32.65038 35267 ft 549 kts 95°
2026-04-23 23:46 -25.69149 32.69156 35266 ft 553 kts 112°
2026-04-23 23:46 -25.70989 32.72883 35268 ft 552 kts 129°
2026-04-23 23:46 -25.72658 32.74996 35275 ft 548 kts 141°
2026-04-23 23:47 -25.75701 32.77463 35300 ft 539 kts 157°
2026-04-23 23:47 -25.80306 32.79149 35278 ft 518 kts 180°
2026-04-23 23:47 -25.82708 32.79259 35278 ft 507 kts 191°
2026-04-23 23:47 -25.86091 32.78509 35283 ft 488 kts 208°
2026-04-23 23:48 -25.89013 32.76768 35284 ft 469 kts 226°
2026-04-23 23:48 -25.91236 32.74229 35284 ft 452 kts 243°
2026-04-23 23:48 -25.92576 32.71157 35284 ft 437 kts 260°
2026-04-23 23:48 -25.92959 32.67860 35295 ft 428 kts 274°
2026-04-23 23:49 -25.92630 32.61233 35311 ft 432 kts 275°
2026-04-23 23:49 -25.92540 32.54538 35315 ft 434 kts 274°
2026-04-23 23:50 -25.92461 32.47831 35319 ft 434 kts 274°
2026-04-23 23:50 -25.92364 32.41127 35312 ft 434 kts 274°
2026-04-23 23:51 -25.92267 32.34424 35320 ft 434 kts 274°
2026-04-23 23:51 -25.92168 32.27729 35307 ft 433 kts 275°
2026-04-23 23:52 -25.92065 32.21042 35302 ft 433 kts 275°
2026-04-23 23:52 -25.91958 32.14351 35311 ft 433 kts 275°
2026-04-23 23:53 -25.91849 32.07660 35312 ft 433 kts 275°
2026-04-23 23:53 -25.91736 32.00974 35310 ft 433 kts 276°
2026-04-23 23:54 -25.91322 31.97690 35294 ft 427 kts 289°
2026-04-23 23:54 -25.90061 31.94798 35297 ft 422 kts 306°
2026-04-23 23:54 -25.87968 31.92513 35299 ft 426 kts 323°
2026-04-23 23:54 -25.85266 31.91117 35300 ft 437 kts 341°
2026-04-23 23:55 -25.81343 31.90859 35293 ft 457 kts
2026-04-23 23:55 -25.78273 31.91921 35300 ft 468 kts 20°
2026-04-23 23:55 -25.75642 31.93997 35368 ft 463 kts 38°
2026-04-23 23:56 -25.73676 31.96828 34961 ft 470 kts 56°
2026-04-23 23:56 -25.72523 32.00251 34335 ft 482 kts 75°
2026-04-23 23:56 -25.72337 32.03973 33664 ft 488 kts 94°
2026-04-23 23:56 -25.73145 32.07619 33052 ft 486 kts 111°
2026-04-23 23:57 -25.74504 32.11015 32504 ft 480 kts 114°
2026-04-23 23:57 -25.75888 32.14370 31896 ft 475 kts 112°
2026-04-23 23:57 -25.77165 32.17730 31301 ft 470 kts 110°
2026-04-23 23:57 -25.78202 32.21143 30688 ft 464 kts 101°
2026-04-23 23:58 -25.78639 32.24645 30066 ft 455 kts 86°
2026-04-23 23:58 -25.78430 32.28108 29392 ft 445 kts 76°
2026-04-23 23:58 -25.77815 32.31438 28734 ft 437 kts 71°
2026-04-23 23:58 -25.76999 32.34658 28101 ft 431 kts 68°
2026-04-23 23:59 -25.76083 32.37795 27465 ft 425 kts 67°
2026-04-23 23:59 -25.75105 32.40872 26851 ft 420 kts 66°
2026-04-23 23:59 -25.74091 32.43886 26254 ft 415 kts 65°
2026-04-23 23:59 -25.73051 32.46855 25670 ft 411 kts 65°
2026-04-24 00:00 -25.72000 32.49782 25096 ft 407 kts 65°
2026-04-24 00:00 -25.70947 32.52676 24538 ft 403 kts 65°
2026-04-24 00:00 -25.69896 32.55540 23985 ft 399 kts 65°
2026-04-24 00:00 -25.68715 32.58294 23316 ft 392 kts 53°
2026-04-24 00:01 -25.66925 32.60492 22636 ft 380 kts 31°
2026-04-24 00:01 -25.64670 32.61914 22024 ft 369 kts 27°
2026-04-24 00:01 -25.62622 32.63636 21385 ft 372 kts 42°
2026-04-24 00:01 -25.61026 32.65888 20765 ft 374 kts 57°
2026-04-24 00:02 -25.59989 32.68526 20167 ft 375 kts 72°
2026-04-24 00:02 -25.59586 32.71376 19562 ft 376 kts 87°
2026-04-24 00:02 -25.59846 32.74244 18972 ft 375 kts 102°
2026-04-24 00:02 -25.60739 32.76909 18380 ft 374 kts 117°
2026-04-24 00:03 -25.62225 32.79255 17726 ft 372 kts 133°
2026-04-24 00:03 -25.64193 32.81087 17097 ft 369 kts 148°
2026-04-24 00:03 -25.66501 32.82276 16450 ft 365 kts 163°
2026-04-24 00:03 -25.68983 32.82743 15835 ft 361 kts 178°
2026-04-24 00:04 -25.71460 32.82455 15229 ft 357 kts 194°
2026-04-24 00:04 -25.73749 32.81442 14631 ft 352 kts 212°
2026-04-24 00:04 -25.75685 32.79852 14073 ft 343 kts 224°
2026-04-24 00:04 -25.77338 32.77991 13427 ft 336 kts 229°
2026-04-24 00:05 -25.78841 32.76040 12791 ft 329 kts 231°
2026-04-24 00:05 -25.80259 32.74069 12169 ft 324 kts 232°
2026-04-24 00:05 -25.81611 32.72088 11550 ft 320 kts 236°
2026-04-24 00:05 -25.82736 32.69968 10952 ft 317 kts 242°
2026-04-24 00:06 -25.83697 32.67778 10364 ft 315 kts 244°
2026-04-24 00:06 -25.84569 32.65664 9293 ft 284 kts 244°
2026-04-24 00:06 -25.85370 32.63700 7567 ft 277 kts 243°
2026-04-24 00:06 -25.86104 32.61833 6675 ft 249 kts 244°
2026-04-24 00:07 -25.86684 32.60020 5670 ft 254 kts 254°
2026-04-24 00:07 -25.86799 32.58072 4919 ft 255 kts 278°
2026-04-24 00:07 -25.86332 32.56165 4422 ft 261 kts 286°
2026-04-24 00:07 -25.85742 32.54232 3647 ft 263 kts 285°
2026-04-24 00:08 -25.85138 32.52332 3625 ft 254 kts 286°
2026-04-24 00:08 -25.84530 32.50471 3794 ft 261 kts 286°
2026-04-24 00:08 -25.83903 32.48555 3541 ft 266 kts 286°
2026-04-24 00:08 -25.83174 32.46682 3171 ft 266 kts 302°
2026-04-24 00:09 -25.81839 32.45281 2804 ft 265 kts 333°
2026-04-24 00:09 -25.80120 32.44748 2554 ft 252 kts
2026-04-24 00:09 -25.78467 32.44981 2551 ft 229 kts 18°
2026-04-24 00:09 -25.76990 32.45421 2562 ft 216 kts 25°
2026-04-24 00:10 -25.75585 32.46062 2710 ft 222 kts 31°
2026-04-24 00:10 -25.74205 32.46873 2832 ft 226 kts 38°
2026-04-24 00:10 -25.72967 32.47912 2920 ft 221 kts 52°
2026-04-24 00:10 -25.71961 32.49165 3049 ft 216 kts 58°
2026-04-24 00:11 -25.71041 32.50468 3158 ft 213 kts 60°
2026-04-24 00:11 -25.70209 32.51793 3241 ft 212 kts 68°
2026-04-24 00:11 -25.69551 32.53250 3289 ft 211 kts 73°
2026-04-24 00:11 -25.69078 32.54724 3361 ft 194 kts 81°
2026-04-24 00:12 -25.68756 32.56133 3226 ft 186 kts 85°
2026-04-24 00:12 -25.68536 32.57541 3223 ft 186 kts 88°
2026-04-24 00:12 -25.68442 32.58968 3265 ft 186 kts 95°
2026-04-24 00:12 -25.68539 32.60392 3286 ft 184 kts 104°
2026-04-24 00:13 -25.68783 32.61725 3503 ft 171 kts 108°
2026-04-24 00:13 -25.69110 32.63000 3409 ft 173 kts 114°
2026-04-24 00:13 -25.69574 32.64215 3182 ft 169 kts 118°
2026-04-24 00:13 -25.70150 32.65317 2975 ft 165 kts 136°
2026-04-24 00:14 -25.71092 32.66006 2899 ft 161 kts 152°
2026-04-24 00:14 -25.72108 32.66536 2974 ft 162 kts 155°
2026-04-24 00:14 -25.73152 32.66996 3172 ft 163 kts 157°
2026-04-24 00:14 -25.74234 32.67417 3262 ft 166 kts 158°
2026-04-24 00:15 -25.75366 32.67665 3232 ft 173 kts 180°
2026-04-24 00:15 -25.76479 32.67063 3042 ft 188 kts 212°
2026-04-24 00:15 -25.77468 32.66145 2887 ft 183 kts 208°
2026-04-24 00:15 -25.78549 32.65440 2649 ft 177 kts 201°
2026-04-24 00:16 -25.79593 32.64833 2503 ft 165 kts 201°
2026-04-24 00:16 -25.80599 32.64220 2208 ft 165 kts 202°
2026-04-24 00:16 -25.81580 32.63620 1931 ft 154 kts 201°
2026-04-24 00:16 -25.82467 32.63075 1677 ft 142 kts 201°
2026-04-24 00:17 -25.83341 32.62576 1527 ft 147 kts 202°
2026-04-24 00:17 -25.84283 32.62023 1565 ft 159 kts 204°
2026-04-24 00:17 -25.85272 32.61433 1309 ft 159 kts 205°
2026-04-24 00:17 -25.86188 32.60845 995 ft 149 kts 207°
2026-04-24 00:18 -25.87056 32.60320 768 ft 137 kts 205°
2026-04-24 00:18 -25.87911 32.59807 566 ft 146 kts 207°
2026-04-24 00:18 -25.88811 32.59255 360 ft 148 kts 207°
2026-04-24 00:18 -25.89691 32.58714 174 ft 145 kts 208°
2026-04-24 00:19 -25.90506 32.58211 138 ft 107 kts 205°
2026-04-24 00:19 -25.91016 32.57902 138 ft 66 kts 209°
2026-04-24 00:19 -25.91356 32.57696 137 ft 51 kts 208°
2026-04-24 00:19 -25.91646 32.57517 134 ft 45 kts 208°
2026-04-24 00:20 -25.91907 32.57360 134 ft 39 kts 209°
2026-04-24 00:20 -25.92055 32.57293 135 ft 12 kts 149°
2026-04-24 00:20 -25.92068 32.57381 134 ft 13 kts 87°
2026-04-24 00:20 -25.92110 32.57445 134 ft 11 kts 169°
2026-04-24 00:21 -25.92186 32.57465 135 ft 10 kts 148°
2026-04-24 00:21 -25.92210 32.57483 135 ft 0 kts 146°
2026-04-24 00:22 -25.92244 32.57485 135 ft 7 kts 178°
2026-04-24 00:22 -25.92278 32.57486 134 ft 3 kts 178°
2026-04-24 00:23 -25.92284 32.57487 134 ft 0 kts 177°